Flag for Norway Weather past 2 weeks in Harstad, Norway

Now
16 °F

Passing clouds.


Feels Like: 16 °F
Forecast: 23 / 28 °F
Wind: 2 mph from North

Location: Evenes

Current Time: Dec 21, 2014 at 5:39:40 PM

Latest Report: Dec 21, 2014 at 3:50 PM


Visibility: N/A

Pressure: 29.47 "Hg

Humidity: 93%

Dew point: 14 °F

Location of HarstadLocation

Historic Weather in Harstad — Graph

°F

Harstad temperature yesterday

Maximum temperature yesterday: 23 °F (at 4:50 PM)
Minimum temperature yesterday: 7 °F (at 11:50 PM)
Average temperature yesterday: 16 °F

Past Weeks' High & Low Weather Summary

 TemperatureHumidityPressure
High37 °F (Dec 7, 4:20 AM)100% (Dec 6, 5:20 PM)29.62 "Hg (Dec 6, 5:20 PM)
Low7 °F (Dec 19, 4:50 PM)47% (Dec 15, 2:20 AM)28.88 "Hg (Dec 10, 6:50 PM)
Average27 °F83%29.13 "Hg
* Reported Dec 6 3:20 PM — Dec 21 3:50 PM, Harstad, Weather by CustomWeather, © 2014

Note: Actual official high and low records may vary slightly from our data, if they occured in-between our weather recording intervals... More about our weather records

Advertising

Harstad weather history for previous 24 hours

 ConditionsComfort  
Time TempWeatherWind HumidityBarometerVisibility
3:50 PM
Dec 21
16 °FPassing clouds.2 mph93%29.47 "HgN/A
2:50 PM16 °FPassing clouds.1 mph86%29.47 "HgN/A
1:50 PM19 °FScattered clouds.1 mph93%29.47 "HgN/A
11:50 AM23 °FLight snow. Partly sunny.2 mph93%29.45 "HgN/A
11:20 AM23 °FLight snow. Partly sunny.3 mph93%29.45 "Hg6 mi
10:50 AM21 °FLight snow. Mostly cloudy.2 mph93%29.42 "Hg2 mi
10:20 AM18 °FLight snow. Overcast.1 mph93%29.42 "Hg4 mi
9:50 AM14 °FSnow flurries. Mostly cloudy.No wind92%29.42 "HgN/A
9:20 AM16 °FCloudy.No wind93%29.42 "HgN/A
8:50 AM12 °FBroken clouds.1 mph92%29.39 "HgN/A
8:20 AM14 °FPartly sunny.No wind92%29.39 "HgN/A
6:50 AM7 °FPartly sunny.1 mph92%29.36 "HgN/A
6:20 AM9 °FFrigid.1 mph85%29.36 "HgN/A
5:50 AM12 °FCold.2 mph85%29.33 "HgN/A
5:20 AM10 °FCold.2 mph92%29.33 "HgN/A
4:50 AM14 °FCold.2 mph100%29.33 "HgN/A
4:20 AM10 °FPassing clouds.3 mph92%29.30 "HgN/A
3:50 AM10 °FPassing clouds.3 mph85%29.30 "HgN/A
3:20 AM14 °FPassing clouds.2 mph92%29.30 "HgN/A
2:50 AM12 °FOvercast.2 mph92%29.27 "HgN/A
2:20 AM10 °FOvercast.2 mph85%29.27 "HgN/A
1:50 AM9 °FPassing clouds.2 mph85%29.24 "HgN/A
1:20 AM9 °FFrigid.1 mph92%29.24 "HgN/A
12:50 AM9 °FPassing clouds.3 mph92%29.24 "HgN/A
12:20 AM10 °FScattered clouds.2 mph85%29.21 "HgN/A
11:50 PM
Dec 20
7 °FFrigid.2 mph85%29.21 "HgN/A
11:20 PM10 °FIce fog.1 mph92%29.21 "Hg1 mi
10:50 PM12 °FPassing clouds.1 mph85%29.21 "HgN/A
9:50 PM14 °FPassing clouds.2 mph92%29.18 "HgN/A
8:50 PM16 °FClear.1 mph93%29.18 "Hg10 mi
8:09 PM16 °FPassing clouds.No wind93%29.15 "HgN/A
7:50 PM16 °FPassing clouds.1 mph93%29.15 "HgN/A
7:20 PM19 °FIce fog.1 mph93%29.15 "Hg1 mi
6:50 PM19 °FScattered clouds.1 mph93%29.15 "HgN/A
6:20 PM21 °FPassing clouds.1 mph100%29.12 "HgN/A
5:50 PM23 °FLight snow. Mostly cloudy.1 mph93%29.12 "Hg1 mi
5:20 PM23 °FOvercast.1 mph100%29.12 "HgN/A
Weather by CustomWeather, © 2014

See weather overviewHow to use our weather pages